Location: Doverdale
(52.2833°N, 2.2000°W)
Time: 01:53:08
(UTC+00:00)

Cosmos 1980 Rocket - Pass Details

Date: 03 March 2021
Orbit: 828 x 851 km, 71.0° (Epoch: 15 April)

Event Time Altitude Azimuth Distance (km) Brightness Sun altitude
Rises 22:27:09 0° 312° (NW) 3,423 6.3 -38.6°
Reaches altitude 10° 22:31:37 10° 344° (NNW) 2,490 5.3 -39.0°
Maximum altitude 22:33:32 12° 4° (N) 2,376 5.0 -39.2°
Drops below altitude 10° 22:35:28 10° 24° (NNE) 2,491 4.9 -39.3°
Enters shadow 22:35:43 10° 26° (NNE) 2,522 4.9 -39.4°
